カタログに戻る

HUNITY-1

運用中科学SSO
NORAD 66670·PAYLOAD·🇭🇺 Hungary

打ち上げ Nov 28, 2025 から Vandenberg Space Force Base

Loading…

次のパス (今後24時間)

TLE

最新Source: Space-Track

元期: Sep 14, 2026, 10:45 UTC

1 66670U 25276E   26257.44850457  .00022312  00000-0  73899-3 0  9995
2 66670  97.3986 331.1978 0006431  65.4197 294.7714 15.31293692 44123

AllMySatでHUNITY-1をリアルタイム追跡

Download on the App Store